Wind_Speed
5 5 4 4 3 3 4 5 5 5 6 6 7 7 7 8 7 6 5 4 5 4 4 4 4 4 4 4 4 4 5 5 5 4 5 5 5 5 4 4 4 4 3
5 5 4 3 3 3 3 4 5 5 6 6 7 7 7 6 6 5 4 4 4 3 3 3 3 3 3 3 2 2 3 5 6 4 4 4 4 5 4 4 4 4 4
6 5 5 3 3 3 3 3 4 4 5 6 7 7 5 5 5 4 4 4 3 3 2 2 3 2 2 2 1 2 4 5 6 4 4 3 3 4 4 4 5 5 4
7 7 6 5 4 4 4 3 4 4 5 6 7 6 5 4 4 4 3 3 3 3 3 3 2 2 2 2 2 3 4 5 5 4 3 3 3 3 3 3 5 5 5
7 7 6 5 5 5 4 4 4 5 5 6 6 5 4 3 3 3 4 3 4 4 3 2 3 3 2 2 3 4 4 4 3 3 2 2 3 3 3 3 4 5 5
9 8 6 6 6 5 5 4 3 5 5 6 6 5 4 4 4 4 4 4 4 4 3 2 3 4 3 3 3 4 4 3 3 3 3 3 3 3 3 3 4 5 5
9 9 8 6 6 6 5 4 4 5 5 6 6 5 5 4 4 4 3 3 4 3 2 2 3 4 4 3 3 4 4 4 4 3 2 2 3 3 3 4 4 4 5
10 9 9 8 7 6 6 6 5 4 4 5 5 5 5 4 4 4 3 3 3 2 2 2 3 4 4 3 3 3 4 4 3 2 3 3 3 3 3 3 4 4 4
10 9 9 9 9 8 6 6 5 5 5 5 5 5 5 5 4 4 3 2 2 3 3 2 3 3 4 3 3 3 2 2 2 2 2 3 3 3 4 3 4 4 4
10 9 9 9 9 8 7 6 6 6 6 6 5 5 5 4 4 4 3 3 3 3 3 3 3 3 3 3 3 2 2 2 2 2 2 3 3 3 3 4 3 4 4
9 9 8 9 8 8 8 7 7 6 7 6 5 5 4 3 4 3 2 2 2 2 2 2 3 2 2 2 2 1 2 2 3 3 4 4 3 3 3 4 4 4 5
10 9 8 8 8 8 7 7 7 7 7 6 5 4 3 4 4 2 1 2 2 2 1 2 1 1 1 0 0 1 2 2 2 4 4 3 3 3 3 4 4 5 6
11 11 10 8 8 8 7 7 8 7 6 5 5 4 4 3 3 2 2 2 1 1 1 1 0 1 2 1 1 2 2 3 3 3 3 3 3 4 4 4 5 5 6
11 11 10 9 8 7 7 7 7 7 6 6 4 3 3 3 3 2 2 1 1 1 0 0 0 1 2 2 3 3 3 3 3 3 4 4 4 5 5 5 6 6 6
11 11 10 9 8 7 7 7 6 6 6 6 5 3 3 2 2 1 1 1 1 1 0 1 1 2 2 2 3 4 4 4 3 4 5 5 5 5 6 6 6 6 7
11 10 10 9 9 8 7 6 6 5 5 4 4 3 3 2 1 1 1 0 0 0 1 2 2 3 3 3 4 4 4 4 4 5 5 6 5 6 6 6 6 7 8
10 10 10 10 9 8 7 6 6 6 5 4 4 4 3 2 2 1 1 1 1 1 2 3 3 4 4 4 4 5 5 5 5 6 6 7 7 7 7 8 8 9 9
10 10 9 9 9 8 8 6 6 6 5 5 5 4 3 2 2 1 1 1 2 3 3 4 4 4 4 4 4 5 5 6 6 7 7 8 8 9 9 10 10 11 11
8 9 9 9 9 8 8 7 6 6 5 5 5 4 3 2 2 2 2 3 3 3 3 3 4 4 4 5 5 5 6 7 8 8 8 9 10 10 11 11 12 12 12
7 7 7 8 8 8 7 7 7 6 5 5 5 4 3 3 2 2 2 3 4 3 4 4 4 5 5 5 6 6 7 8 8 9 9 10 10 10 11 11 12 12 11
6 6 6 7 7 6 6 6 6 6 6 5 5 5 4 4 3 3 3 3 3 3 4 4 4 5 5 6 7 7 8 9 9 9 9 9 9 10 10 11 11 11 11
6 6 5 6 5 5 5 5 5 6 6 6 5 5 5 5 5 4 4 3 4 4 4 4 4 5 6 7 8 8 8 8 9 9 9 9 10 11 11 11 12 12 11
6 5 5 4 4 4 5 5 5 6 6 6 5 6 5 6 6 5 4 4 5 4 5 5 5 6 6 7 7 8 8 8 8 8 9 10 10 11 11 11 11 11 9
6 5 5 4 4 4 5 5 5 5 6 6 5 6 6 6 6 6 6 6 6 6 6 6 6 6 6 6 7 7 8 8 8 8 10 10 10 10 10 11 11 11 9
5 5 5 5 4 4 5 6 5 5 6 6 6 7 7 7 7 7 7 7 7 7 7 7 7 7 7 7 7 8 8 9 10 10 9 9 9 10 10 10 11 10 10
5 5 5 5 5 5 6 6 6 6 7 7 7 7 7 8 8 8 8 7 8 8 8 8 8 8 8 8 8 8 9 10 10 10 10 9 10 10 11 11 11 11 10
Wind_Direction
65 63 68 84 87 100 112 127 137 146 150 153 157 154 159 158 157 156 166 164 158 165 174 184 187 189 188 201 214 231 231 220 211 213 210 202 207 211 206 205 209 212 215
68 63 74 95 102 114 122 121 144 155 163 164 163 159 159 158 156 158 161 162 151 157 169 178 179 178 188 199 224 221 204 193 197 202 199 198 209 218 219 218 220 212 214
65 64 66 85 106 118 128 132 143 151 160 163 163 159 157 157 159 156 159 155 151 159 156 158 175 190 202 203 144 132 158 168 181 183 188 185 200 217 223 222 222 217 222
67 66 68 76 96 125 136 135 141 151 160 160 161 158 151 150 158 161 159 157 154 157 150 140 151 180 187 177 128 126 147 162 169 179 191 193 215 225 220 225 225 223 231
64 68 69 70 85 106 120 127 140 148 154 156 158 154 143 144 153 147 134 135 144 148 148 146 143 157 162 155 137 143 145 156 164 182 194 217 231 231 226 225 224 229 236
63 68 72 71 81 98 109 121 142 152 150 153 155 154 152 154 150 147 139 130 146 147 146 159 158 157 161 153 149 153 152 161 178 182 197 212 220 224 230 231 232 237 237
61 67 73 73 85 91 95 103 119 140 148 154 154 151 154 157 143 141 137 133 143 143 165 190 172 163 166 152 148 156 161 171 182 190 198 213 200 202 215 229 237 244 247
58 65 71 82 80 78 86 93 95 122 139 147 153 155 151 150 148 143 132 128 129 126 130 164 163 160 163 156 154 156 169 178 186 202 216 225 228 233 231 236 238 244 260
58 63 71 77 80 83 84 86 90 105 120 132 138 137 141 145 138 134 141 128 114 114 117 129 158 159 163 172 170 169 181 192 207 232 244 247 259 264 249 243 246 250 257
60 64 69 70 73 75 81 89 92 101 110 116 122 130 139 136 130 122 122 122 114 112 117 111 118 142 154 174 186 188 197 216 226 254 268 267 272 275 269 258 249 257 259
57 59 66 68 72 74 77 86 97 99 104 108 116 125 129 132 131 131 132 138 135 108 110 118 116 109 142 157 171 208 236 242 251 269 273 278 280 282 281 270 266 267 261
59 57 61 65 66 69 77 81 93 96 98 104 113 112 116 120 121 129 148 170 161 121 102 116 123 66 60 122 222 270 264 260 271 280 273 273 277 282 289 285 287 276 273
53 54 58 61 63 69 80 84 87 87 89 96 106 112 116 116 116 118 135 159 142 124 122 143 111 6 356 326 285 286 283 273 272 281 274 263 262 268 276 282 289 281 272
54 55 53 55 61 69 77 78 75 81 87 90 94 97 99 107 113 115 116 107 93 82 133 195 296 334 336 336 323 303 287 272 265 276 282 266 261 266 269 277 277 276 271
53 55 54 55 60 66 73 67 70 75 80 85 84 87 106 122 105 89 119 85 98 138 194 258 286 306 316 321 324 311 307 292 282 279 280 274 273 271 272 275 281 277 273
51 52 53 56 59 60 59 60 66 69 73 75 74 79 91 104 111 118 91 46 15 206 249 266 276 294 304 308 312 308 307 308 296 295 293 284 279 278 282 285 287 285 284
49 50 52 54 57 59 58 61 66 64 56 61 66 68 72 73 75 64 22 312 303 285 267 264 276 285 299 303 304 303 303 302 298 296 299 296 284 282 284 290 292 292 289
48 49 50 52 56 58 58 61 66 58 67 67 62 56 59 61 47 22 355 287 291 296 276 274 283 282 292 296 295 293 295 298 295 291 292 290 286 286 285 289 293 292 289
44 47 48 49 54 56 55 62 66 57 66 60 57 53 40 32 16 348 317 294 301 298 287 297 292 285 284 287 286 284 288 293 290 288 287 286 287 288 288 291 289 288 288
39 44 46 46 50 52 51 54 55 54 52 42 41 45 39 26 9 356 327 308 307 296 294 296 295 285 282 279 282 289 293 293 289 288 291 292 290 294 294 294 293 287 287
31 34 36 38 41 45 49 49 47 41 38 32 22 23 26 21 12 16 8 352 337 323 310 303 299 292 289 285 284 285 288 292 294 293 293 297 298 297 297 298 298 296 295
22 27 28 28 31 34 37 37 34 29 26 21 14 13 9 4 357 347 348 351 343 340 333 323 310 299 292 289 288 290 290 290 293 297 298 297 296 293 298 300 299 298 294
7 11 11 13 21 22 22 18 16 16 9 6 2 0 358 357 356 352 345 344 343 337 327 320 315 306 298 295 294 295 299 300 296 300 296 298 296 294 297 297 299 303 296
352 350 350 356 5 1 358 358 354 356 358 358 353 348 344 347 347 344 340 341 340 332 324 318 313 304 300 301 303 303 308 305 303 301 302 303 303 302 302 298 297 298 294
338 338 341 343 344 343 341 344 346 342 341 341 339 335 334 335 338 338 333 329 327 326 321 317 319 313 309 306 306 308 310 311 308 308 307 303 300 301 300 300 297 293 287
330 329 330 329 326 330 334 333 333 332 328 326 325 323 318 319 321 327 327 321 318 316 315 316 315 316 314 311 307 306 311 313 312 310 308 305 302 301 300 301 298 297 293
Height
5884 5883 5883 5882 5882 5882 5883 5883 5884 5884 5885 5886 5887 5887 5888 5889 5890 5891 5891 5892 5892 5892 5892 5892 5892 5892 5892 5891 5891 5890 5889 5889 5891 5893 5894 5894 5895 5896 5896 5896 5896 5896 5896
5884 5883 5883 5882 5883 5883 5883 5884 5884 5885 5886 5887 5887 5888 5889 5890 5891 5891 5892 5892 5892 5892 5892 5892 5892 5892 5892 5891 5889 5886 5885 5887 5889 5892 5893 5894 5895 5895 5895 5895 5895 5895 5895
5884 5883 5883 5882 5882 5883 5883 5884 5884 5885 5886 5887 5888 5889 5889 5890 5891 5891 5892 5892 5892 5893 5893 5893 5892 5892 5892 5891 5888 5885 5884 5886 5889 5891 5893 5894 5894 5894 5894 5894 5894 5894 5894
5885 5884 5883 5882 5881 5882 5883 5884 5885 5885 5886 5887 5888 5889 5890 5890 5891 5892 5892 5892 5892 5893 5893 5893 5893 5892 5892 5891 5889 5887 5886 5888 5890 5892 5893 5893 5893 5893 5893 5893 5893 5893 5893
5885 5885 5883 5883 5882 5882 5883 5884 5885 5885 5886 5887 5888 5889 5890 5890 5891 5892 5892 5892 5892 5893 5893 5893 5893 5893 5892 5891 5890 5889 5889 5890 5891 5892 5893 5893 5893 5893 5893 5893 5893 5893 5893
5886 5885 5884 5884 5883 5883 5883 5884 5884 5885 5886 5887 5888 5889 5890 5890 5891 5892 5892 5892 5892 5892 5893 5893 5893 5893 5892 5892 5891 5891 5891 5892 5892 5892 5893 5893 5892 5892 5892 5891 5892 5892 5892
5887 5886 5885 5885 5884 5884 5884 5884 5884 5885 5886 5887 5888 5889 5890 5891 5891 5892 5892 5892 5892 5892 5892 5892 5893 5893 5892 5892 5892 5892 5892 5892 5892 5892 5893 5892 5892 5891 5891 5891 5891 5891 5891
5888 5887 5886 5885 5885 5884 5884 5884 5884 5885 5886 5887 5888 5889 5890 5891 5892 5892 5892 5892 5892 5892 5892 5892 5892 5892 5892 5892 5892 5892 5892 5892 5892 5892 5892 5892 5892 5892 5891 5891 5891 5891 5890
5890 5889 5888 5887 5886 5885 5885 5885 5885 5885 5886 5887 5888 5889 5890 5891 5892 5892 5892 5892 5892 5892 5892 5892 5892 5892 5892 5892 5892 5892 5892 5892 5892 5892 5891 5891 5891 5891 5891 5890 5890 5890 5889
5891 5890 5890 5889 5888 5887 5887 5886 5886 5886 5887 5888 5889 5890 5891 5891 5891 5892 5892 5892 5892 5892 5892 5892 5892 5891 5891 5892 5892 5892 5892 5892 5892 5891 5891 5891 5890 5890 5890 5889 5889 5889 5888
5893 5892 5891 5890 5890 5889 5889 5888 5888 5888 5888 5889 5890 5890 5891 5891 5891 5892 5892 5892 5892 5892 5892 5892 5892 5891 5892 5892 5892 5892 5892 5891 5891 5890 5890 5890 5890 5889 5889 5889 5888 5887 5887
5894 5893 5892 5892 5891 5891 5890 5890 5889 5889 5889 5890 5890 5891 5891 5891 5892 5892 5892 5892 5892 5892 5892 5892 5892 5892 5892 5892 5892 5892 5891 5891 5890 5890 5889 5889 5889 5888 5888 5887 5887 5886 5885
5895 5894 5893 5893 5892 5892 5891 5891 5891 5891 5891 5891 5891 5891 5891 5892 5892 5892 5892 5892 5892 5892 5892 5892 5892 5892 5892 5892 5892 5891 5890 5890 5889 5888 5888 5888 5888 5887 5886 5886 5885 5884 5883
5897 5896 5895 5894 5894 5893 5893 5892 5892 5892 5892 5892 5892 5892 5892 5892 5892 5892 5892 5892 5892 5892 5892 5892 5892 5892 5892 5892 5891 5890 5890 5889 5888 5887 5887 5886 5886 5885 5885 5884 5883 5882 5881
5898 5897 5896 5895 5895 5894 5894 5893 5893 5893 5893 5893 5892 5892 5892 5892 5892 5892 5892 5892 5892 5892 5892 5892 5892 5892 5891 5891 5890 5890 5889 5888 5887 5886 5885 5885 5884 5883 5883 5882 5881 5880 5879
5900 5899 5898 5897 5896 5895 5895 5894 5894 5894 5893 5893 5893 5893 5892 5892 5892 5892 5892 5892 5892 5892 5892 5891 5891 5891 5890 5890 5890 5889 5888 5887 5886 5885 5884 5883 5882 5882 5881 5880 5879 5878 5877
5901 5900 5899 5898 5897 5896 5896 5895 5894 5894 5894 5893 5893 5893 5892 5892 5892 5892 5892 5892 5892 5891 5891 5890 5890 5890 5889 5889 5888 5888 5887 5886 5885 5884 5883 5882 5881 5880 5879 5878 5877 5876 5874
5902 5901 5900 5899 5898 5897 5897 5896 5895 5894 5894 5893 5893 5893 5892 5892 5891 5891 5891 5891 5891 5890 5890 5889 5889 5888 5888 5888 5887 5886 5886 5885 5884 5883 5882 5880 5879 5878 5877 5876 5875 5873 5872
5903 5902 5901 5900 5899 5898 5897 5897 5896 5895 5894 5894 5893 5893 5892 5891 5891 5891 5890 5890 5889 5889 5889 5888 5887 5887 5886 5886 5885 5885 5884 5883 5882 5881 5880 5879 5877 5876 5875 5873 5872 5870 5869
5903 5902 5901 5900 5899 5898 5898 5897 5896 5895 5894 5894 5893 5892 5892 5891 5891 5890 5889 5889 5888 5888 5887 5887 5886 5885 5885 5884 5884 5883 5882 5881 5880 5879 5878 5876 5875 5874 5872 5871 5869 5868 5867
5904 5903 5902 5901 5900 5899 5898 5897 5896 5895 5895 5894 5893 5892 5892 5891 5890 5889 5889 5888 5887 5887 5886 5885 5885 5884 5883 5883 5882 5881 5880 5879 5878 5877 5876 5874 5873 5872 5870 5868 5867 5865 5864
5904 5903 5902 5901 5900 5899 5899 5898 5897 5896 5895 5894 5893 5892 5892 5891 5890 5889 5888 5887 5886 5885 5885 5884 5883 5882 5882 5881 5880 5879 5878 5877 5876 5874 5873 5872 5871 5869 5868 5866 5864 5863 5861
5903 5903 5902 5901 5900 5900 5899 5898 5897 5896 5895 5894 5893 5892 5891 5890 5889 5888 5887 5886 5885 5884 5883 5883 5882 5881 5880 5879 5878 5877 5876 5875 5873 5872 5871 5869 5868 5867 5865 5863 5862 5860 5858
5903 5902 5902 5901 5900 5899 5898 5897 5896 5895 5894 5893 5892 5891 5890 5889 5888 5887 5886 5885 5884 5883 5882 5881 5880 5879 5878 5877 5876 5874 5874 5872 5871 5870 5868 5867 5865 5864 5862 5861 5859 5857 5856
5902 5902 5901 5900 5899 5899 5898 5897 5896 5895 5894 5892 5891 5890 5889 5888 5887 5886 5885 5884 5883 5882 5880 5879 5878 5877 5876 5875 5874 5872 5871 5870 5869 5867 5866 5864 5863 5861 5859 5858 5856 5855 5853
5901 5900 5900 5899 5898 5897 5896 5895 5894 5893 5892 5891 5890 5889 5887 5886 5885 5884 5883 5882 5880 5879 5878 5877 5876 5875 5874 5873 5872 5870 5869 5868 5866 5865 5863 5862 5860 5859 5857 5855 5853 5852 5850